When you browse on this site, cookies collect data to enhance your experience and personalize the content and advertising you see.
Visit our Privacy Policy to learn more. By continuing to use the site, you agree to this use of cookies and data.
  • In Hungary
  • List of Countries
  • For 7 days
  • Water Temperature
  • Weather Map
  • News
  • Weather Widgets
  • user-avatar
    Login

    Hourly Weather Orehovaya Roscha

    Today, 22 October, Tuesday

    Time Temperature Precipitation Wind Pressure Humidity
    00:00 +10°C° 0 mm 3 mps 743 mmHg 80%
    01:00 +10°C° 0 mm 2 mps 743 mmHg 83%
    02:00 +9°C° 0 mm 2 mps 743 mmHg 86%
    03:00 +9°C° 0 mm 2 mps 743 mmHg 89%
    04:00 +8°C° 0 mm 2 mps 743 mmHg 90%
    05:00 +8°C° 0 mm 2 mps 743 mmHg 91%
    06:00 +8°C° 0 mm 2 mps 743 mmHg 93%
    07:00 +9°C° 0 mm 2 mps 743 mmHg 86%
    08:00 +10°C° 0 mm 2 mps 743 mmHg 79%
    09:00 +12°C° 0 mm 3 mps 743 mmHg 72%
    10:00 +14°C° 0 mm 3 mps 743 mmHg 64%
    11:00 +16°C° 0 mm 3 mps 743 mmHg 56%
    12:00 +18°C° 0 mm 4 mps 743 mmHg 48%
    13:00 +18°C° 0 mm 4 mps 743 mmHg 47%
    14:00 +19°C° 0 mm 4 mps 743 mmHg 45%
    15:00 +19°C° 0 mm 4 mps 743 mmHg 43%
    16:00 +18°C° 0 mm 3 mps 743 mmHg 48%
    17:00 +16°C° 0 mm 3 mps 743 mmHg 53%
    18:00 +15°C° 0 mm 2 mps 743 mmHg 58%
    19:00 +14°C° 0 mm 2 mps 743 mmHg 61%
    20:00 +13°C° 0 mm 2 mps 743 mmHg 64%
    21:00 +13°C° 0 mm 2 mps 743 mmHg 67%
    22:00 +12°C° 0 mm 2 mps 743 mmHg 71%
    23:00 +10°C° 0 mm 2 mps 743 mmHg 74%

    Tomorrow, 23 October, Wednesday

    Time Temperature Precipitation Wind Pressure Humidity
    00:00 +10°C° 0 mm 2 mps 742 mmHg 78%
    01:00 +11°C° 0 mm 1 mps 742 mmHg 80%
    02:00 +10°C° 0 mm 1 mps 743 mmHg 83%
    03:00 +10°C° 0 mm 1 mps 743 mmHg 85%
    04:00 +10°C° 0 mm 1 mps 743 mmHg 87%
    05:00 +10°C° 0 mm 1 mps 743 mmHg 88%
    06:00 +9°C° 0 mm 1 mps 743 mmHg 90%
    07:00 +11°C° 0 mm 1 mps 743 mmHg 84%
    08:00 +12°C° 0 mm 2 mps 743 mmHg 79%
    09:00 +13°C° 0 mm 2 mps 743 mmHg 73%
    10:00 +14°C° 0 mm 2 mps 743 mmHg 67%
    11:00 +16°C° 0 mm 3 mps 743 mmHg 60%
    12:00 +17°C° 0 mm 3 mps 743 mmHg 54%
    13:00 +18°C° 0 mm 3 mps 743 mmHg 51%
    14:00 +18°C° 0 mm 3 mps 742 mmHg 49%
    15:00 +18°C° 0 mm 3 mps 742 mmHg 47%
    16:00 +17°C° 0 mm 3 mps 742 mmHg 50%
    17:00 +16°C° 0 mm 2 mps 742 mmHg 53%
    18:00 +15°C° 0 mm 2 mps 743 mmHg 56%
    19:00 +14°C° 0 mm 2 mps 743 mmHg 57%
    20:00 +13°C° 0 mm 2 mps 743 mmHg 59%
    21:00 +12°C° 0 mm 2 mps 743 mmHg 60%
    22:00 +12°C° 0 mm 2 mps 743 mmHg 62%
    23:00 +10°C° 0 mm 2 mps 743 mmHg 63%

    Day after tomorrow, 24 October, Thursday

    Time Temperature Precipitation Wind Pressure Humidity
    00:00 +10°C° 0 mm 2 mps 742 mmHg 64%
    01:00 +10°C° 0 mm 1 mps 742 mmHg 68%
    02:00 +10°C° 0 mm 1 mps 742 mmHg 71%
    03:00 +10°C° 0 mm 1 mps 742 mmHg 75%
    04:00 +9°C° 0 mm 1 mps 742 mmHg 78%
    05:00 +9°C° 0 mm 1 mps 742 mmHg 81%
    06:00 +8°C° 0 mm 2 mps 742 mmHg 85%
    07:00 +9°C° 0 mm 2 mps 742 mmHg 79%
    08:00 +12°C° 0 mm 2 mps 742 mmHg 73%
    09:00 +12°C° 0 mm 3 mps 742 mmHg 67%
    10:00 +14°C° 0 mm 3 mps 742 mmHg 61%
    11:00 +15°C° 0 mm 4 mps 742 mmHg 54%
    12:00 +18°C° 0 mm 4 mps 742 mmHg 47%
    13:00 +18°C° 0 mm 4 mps 742 mmHg 45%
    14:00 +18°C° 0 mm 4 mps 741 mmHg 43%
    15:00 +18°C° 0 mm 4 mps 741 mmHg 41%
    16:00 +17°C° 0 mm 4 mps 741 mmHg 45%
    17:00 +14°C° 0 mm 3 mps 741 mmHg 49%
    18:00 +13°C° 0 mm 3 mps 741 mmHg 53%
    19:00 +12°C° 0 mm 3 mps 741 mmHg 55%
    20:00 +13°C° 0 mm 2 mps 741 mmHg 57%
    21:00 +12°C° 0 mm 2 mps 741 mmHg 60%
    22:00 +12°C° 0 mm 2 mps 741 mmHg 63%
    23:00 +10°C° 0 mm 2 mps 741 mmHg 67%

    25 October, Friday

    Time Temperature Precipitation Wind Pressure Humidity
    00:00 +10°C° 0 mm 2 mps 741 mmHg 71%
    01:00 +9°C° 0 mm 2 mps 741 mmHg 74%
    02:00 +9°C° 0 mm 2 mps 740 mmHg 78%
    03:00 +9°C° 0 mm 2 mps 740 mmHg 81%
    04:00 +8°C° 0 mm 2 mps 740 mmHg 84%
    05:00 +8°C° 0 mm 2 mps 740 mmHg 86%
    06:00 +8°C° 0 mm 2 mps 740 mmHg 89%
    07:00 +9°C° 0 mm 2 mps 740 mmHg 84%
    08:00 +12°C° 0 mm 2 mps 740 mmHg 79%
    09:00 +12°C° 0 mm 3 mps 741 mmHg 75%
    10:00 +14°C° 0 mm 3 mps 741 mmHg 68%
    11:00 +15°C° 0 mm 4 mps 741 mmHg 61%
    12:00 +18°C° 0 mm 4 mps 741 mmHg 55%
    13:00 +18°C° 0 mm 4 mps 741 mmHg 53%
    14:00 +19°C° 0 mm 4 mps 741 mmHg 51%
    15:00 +19°C° 0 mm 5 mps 741 mmHg 50%
    16:00 +17°C° 0 mm 4 mps 741 mmHg 54%
    17:00 +16°C° 0 mm 3 mps 741 mmHg 58%
    18:00 +13°C° 0 mm 3 mps 741 mmHg 62%
    19:00 +13°C° 0 mm 3 mps 741 mmHg 63%
    20:00 +12°C° 0 mm 3 mps 741 mmHg 64%
    21:00 +13°C° 0 mm 2 mps 741 mmHg 65%
    22:00 +12°C° 0 mm 2 mps 741 mmHg 67%
    23:00 +12°C° 0 mm 2 mps 741 mmHg 69%

    26 October, Saturday

    Time Temperature Precipitation Wind Pressure Humidity
    00:00 +10°C° 0 mm 2 mps 741 mmHg 72%
    01:00 +10°C° 0 mm 2 mps 741 mmHg 75%
    02:00 +9°C° 0 mm 2 mps 741 mmHg 78%
    03:00 +9°C° 0 mm 2 mps 741 mmHg 80%
    04:00 +8°C° 0 mm 2 mps 741 mmHg 84%
    05:00 +8°C° 0 mm 2 mps 742 mmHg 87%
    06:00 +8°C° 0 mm 2 mps 742 mmHg 90%
    07:00 +9°C° 0 mm 2 mps 742 mmHg 85%
    08:00 +11°C° 0 mm 3 mps 742 mmHg 80%
    09:00 +12°C° 0 mm 3 mps 742 mmHg 75%
    10:00 +13°C° 0 mm 4 mps 742 mmHg 73%
    11:00 +15°C° 0 mm 5 mps 742 mmHg 71%
    12:00 +16°C° 0 mm 5 mps 742 mmHg 69%
    13:00 +16°C° 0 mm 5 mps 742 mmHg 70%
    14:00 +16°C° 0 mm 5 mps 742 mmHg 70%
    15:00 +16°C° 0 mm 5 mps 741 mmHg 71%
    16:00 +15°C° 0 mm 4 mps 741 mmHg 72%
    17:00 +16°C° 0 mm 3 mps 742 mmHg 72%
    18:00 +16°C° 0 mm 2 mps 742 mmHg 73%
    19:00 +16°C° 0 mm 3 mps 742 mmHg 73%
    20:00 +16°C° 0 mm 3 mps 742 mmHg 73%
    21:00 +15°C° 0 mm 4 mps 741 mmHg 73%
    22:00 +14°C° 0 mm 3 mps 741 mmHg 79%
    23:00 +12°C° 0 mm 3 mps 741 mmHg 84%

    27 October, Sunday

    Time Temperature Precipitation Wind Pressure Humidity
    00:00 +12°C° 0 mm 2 mps 741 mmHg 90%
    01:00 +12°C° 0 mm 2 mps 740 mmHg 91%
    02:00 +11°C° 0 mm 1 mps 740 mmHg 93%
    03:00 +11°C° 0 mm 1 mps 740 mmHg 94%
    04:00 +10°C° 0 mm 1 mps 740 mmHg 94%
    05:00 +10°C° 0 mm 1 mps 740 mmHg 95%
    06:00 +9°C° 0 mm 0 mps 740 mmHg 95%
    07:00 +10°C° 0 mm 0 mps 740 mmHg 89%
    08:00 +11°C° 0 mm 0 mps 740 mmHg 83%
    09:00 +12°C° 0 mm 0 mps 740 mmHg 77%
    10:00 +15°C° 0 mm 1 mps 740 mmHg 71%
    11:00 +18°C° 0 mm 1 mps 740 mmHg 64%
    12:00 +18°C° 0 mm 2 mps 740 mmHg 58%
    13:00 +19°C° 0 mm 2 mps 739 mmHg 55%
    14:00 +19°C° 0 mm 2 mps 739 mmHg 53%
    15:00 +21°C° 0 mm 1 mps 739 mmHg 51%
    16:00 +19°C° 0 mm 1 mps 739 mmHg 55%
    17:00 +18°C° 0 mm 1 mps 738 mmHg 60%
    18:00 +16°C° 0 mm 1 mps 738 mmHg 65%
    19:00 +15°C° 0 mm 1 mps 738 mmHg 67%
    20:00 +15°C° 0 mm 1 mps 738 mmHg 69%
    21:00 +14°C° 0 mm 1 mps 738 mmHg 71%
    22:00 +14°C° 0 mm 1 mps 738 mmHg 72%
    23:00 +13°C° 0 mm 1 mps 738 mmHg 73%

    28 October, Monday

    Time Temperature Precipitation Wind Pressure Humidity
    00:00 +13°C° 0 mm 1 mps 738 mmHg 74%
    01:00 +13°C° 0 mm 1 mps 738 mmHg 75%
    02:00 +13°C° 0 mm 1 mps 737 mmHg 75%
    03:00 +12°C° 0 mm 1 mps 737 mmHg 76%
    04:00 +12°C° 0 mm 1 mps 737 mmHg 75%
    05:00 +12°C° 0 mm 1 mps 737 mmHg 75%
    06:00 +12°C° 0 mm 2 mps 737 mmHg 75%
    07:00 +14°C° 0 mm 2 mps 737 mmHg 68%
    08:00 +15°C° 0 mm 2 mps 738 mmHg 62%
    09:00 +17°C° 0 mm 2 mps 738 mmHg 56%
    10:00 +18°C° 0 mm 3 mps 738 mmHg 52%
    11:00 +20°C° 0 mm 3 mps 737 mmHg 48%
    12:00 +21°C° 0 mm 3 mps 737 mmHg 45%
    13:00 +22°C° 0 mm 3 mps 737 mmHg 44%
    14:00 +22°C° 0 mm 3 mps 737 mmHg 43%
    15:00 +22°C° 0 mm 3 mps 737 mmHg 43%
    16:00 +20°C° 0 mm 3 mps 737 mmHg 49%
    17:00 +19°C° 0 mm 2 mps 738 mmHg 55%
    18:00 +17°C° 0 mm 2 mps 738 mmHg 60%
    19:00 +17°C° 0 mm 2 mps 738 mmHg 64%
    20:00 +16°C° 0 mm 2 mps 738 mmHg 67%
    21:00 +16°C° 0 mm 1 mps 738 mmHg 70%
    22:00 +15°C° 0 mm 1 mps 738 mmHg 72%
    23:00 +15°C° 0 mm 1 mps 738 mmHg 75%
    Show more